Flag for Venezuela Weather past 2 weeks in Caracas, Venezuela

Now
79 °F

Passing clouds.


Feels Like: 82 °F
Forecast: 67 / 79 °F
Wind: 1 mph from Northeast

Location: Caracas / Maiquetia Aerop. Intl. Simon Bolivar

Current Time: Apr 25, 2015 at 1:06:51 AM

Latest Report: Apr 25, 2015 at 12:30 AM


Visibility: N/A

Pressure: 29.92 "Hg

Humidity: 89%

Dew point: 75 °F

Location of CaracasLocation

Historic Weather in Caracas — Graph

°F

Caracas temperature yesterday

Maximum temperature yesterday: 93 °F (at 2:30 PM)
Minimum temperature yesterday: 77 °F (at 12:30 AM)
Average temperature yesterday: 83 °F

Past Weeks' High & Low Weather Summary

 TemperatureHumidityPressure
High93 °F (Apr 24, 2:30 PM)100% (Apr 11, 1:30 AM)30.01 "Hg (Apr 11, 1:30 AM)
Low73 °F (Apr 11, 3:30 AM)47% (Apr 24, 2:30 PM)29.86 "Hg (Apr 10, 6:30 PM)
Average80 °F80%29.93 "Hg
* Reported Apr 9 11:30 PM — Apr 24 11:30 PM, Caracas, Weather by CustomWeather, © 2015

Note: Actual official high and low records may vary slightly from our data, if they occured in-between our weather recording intervals... More about our weather records

Advertising

Caracas weather history for previous 24 hours

 ConditionsComfort  
Time TempWeatherWind HumidityBarometerVisibility
11:30 PM
Fri, Apr 24
81 °FPassing clouds.1 mph84%29.92 "HgN/A
10:30 PM81 °FPassing clouds.3 mph84%29.92 "HgN/A
9:30 PM82 °FPassing clouds.No wind79%29.89 "HgN/A
8:30 PM82 °FPassing clouds.No wind79%29.89 "HgN/A
7:30 PM82 °FPassing clouds.No wind79%29.86 "HgN/A
6:30 PM86 °FPassing clouds.2 mph75%29.86 "HgN/A
5:30 PM88 °FScattered clouds.3 mph70%29.86 "HgN/A
4:30 PM88 °FPassing clouds.5 mph62%29.86 "HgN/A
3:30 PM93 °FPassing clouds.12 mph47%29.86 "HgN/A
2:30 PM93 °FPassing clouds.10 mph47%29.86 "HgN/A
1:30 PM91 °FPassing clouds.9 mph49%29.89 "HgN/A
12:30 PM86 °FPassing clouds.5 mph75%29.92 "HgN/A
11:30 AM86 °FPassing clouds.7 mph75%29.95 "HgN/A
10:30 AM88 °FPassing clouds.8 mph70%29.95 "HgN/A
9:30 AM84 °FPassing clouds.3 mph79%29.95 "HgN/A
8:30 AM82 °FPassing clouds.7 mph79%29.95 "HgN/A
7:30 AM81 °FScattered clouds.6 mph79%29.89 "HgN/A
6:30 AM77 °FScattered clouds.No wind94%29.89 "HgN/A
5:30 AM77 °FScattered clouds.No wind94%29.89 "HgN/A
4:30 AM77 °FPassing clouds.3 mph89%29.89 "HgN/A
3:30 AM77 °FPassing clouds.5 mph89%29.89 "HgN/A
2:30 AM77 °FPassing clouds.5 mph89%29.89 "HgN/A
1:30 AM77 °FPassing clouds.7 mph89%29.92 "HgN/A
Weather by CustomWeather, © 2015

See weather overviewHow to use our weather pages